Location: Newark
(47.5833°N, 8.1500°E)
Time: 22:21:00
(UTC+00:00)

Vanguard 1 - Pass Details

Date: 04 November 2020
Orbit: 650 x 3833 km, 34.2° (Epoch: 28 November)

Event Time Altitude Azimuth Distance (km) Brightness Sun altitude
Rises 09:19:52 0° 214° (SW) 6,255 14.5 22.1°
Reaches altitude 10° 09:23:55 10° 207° (SSW) 5,626 14.5 22.5°
Maximum altitude 09:40:21 39° 146° (SSE) 4,700 15.4 23.7°
Drops below altitude 10° 10:00:25 10° 89° (E) 6,844 14.7 24.9°
Sets 10:05:59 0° 83° (E) 7,688 14.7 25.2°
